YZ-1 R/B, 43708

Orbit data source: Space-Track

YZ-1 R/B, 43708 is space debris originally from a launch on Sun, 18 Nov 2018 UTC launched from the Xichang Space Center, China (XSC). Debris objects in space refer to the collection of defunct objects orbiting the Earth. Examples of debris include non-operational satellites, rocket bodies, and fragments generated from explosions, collisions, or faulty payload assembly.

Loading next visibility...
Identifier
43708, 2018-093C
Orbit
Active
Country
Flag of CNCN / PRC
Related business
Manufacturer
CALT
Mission
Spacecraft
Bus & Motor
YZ-1, Unknown motor
Mass
~2,075 kg wet, ~2,075 kg dry
Launch date (UTC)
2018-11-18 (8 years ago)
Launch vehicle
Unknown
Launch site
Xichang Space Center, China (XSC)
Object type
Payload
Rocket body
Debris
Shape & HBR
Double Cone, 2.0 m
Radar Cross Section
5.890 m², Large (>1 m²)

Expand to show TLE details & history
Last TLE update: 3 days ago

TLE from 3 days ago
0 YZ-1 R/B
1 43708U 18093C   26170.47748698  .00000056  00000-0  00000-0 0  9993
2 43708  54.1312 191.9110 0163248  52.0339 309.4708  1.77350488 49128
Epoch: 2026-06-19T11:27Z
TLE epoch observation values (Epoch: 2026-06-19T11:27:34.875Z)
Latitude
0.00003°
Longitude
112.31583°
Altitude
22,157.802 km
Speed
3.757 km/s
True Right ascension
12h 47m 40s
True Declination
0° 00' 00"
Sunlit
Object was in daylight at epoch
Visualization orbit readout
Latitude
Unknown
Longitude
Unknown
Altitude
Unknown
Speed
Unknown
Apparent Right ascension
Unknown
Apparent Declination
Unknown
Sunlit
N/A
Visualization observer readout
Local Sidereal Time
21:27:54
Azimuth
Unknown
Elevation
Unknown
Doppler factor
Unknown
Orbital elements
Apogee altitude
22,922.702 km
Perigee altitude
21,981.407 km
Semi-major axis
28,830.191 km
Eccentricity
0.01632
Inclination
54.1312°
RAAN
191.911°
Arg. of periapsis
52.0339°
True anomaly
308.00792°
Mean anomaly
309.4708°
Eccentric anomaly
308.74125°
Mean motion
0.44338 °/min
Orbital period
811.95 mins
BSTAR
0
Loading maneuver chart data...
Computing Atmospheric mass density...
Loading historical data...
Loading historical data...
Loading historical data...
Loading historical data...
Loading historical data...
Loading historical data...
Loading historical data...
Other satellites on launch #93 in the year 2018 (2018-11-18 UTC)

Documentation

Showing up to 5 results
|